,,,PA_Meas_PMT16A,,PR_Meas_QMR101_102,,RH_Meas_QMH101,,SR_Meas_QMS101,,TA_Meas_QMH101,,GenWind,,GenWind,
date,time,status,PA,status,PR,status,RH,status,SR,status,TA,status,DirAvg,status,SpdAvg,
2010-12-15, 00:00:04,VALID,998.911,VALID,0,VALID,91.6546,VALID,0,VALID,23.6622,VALID,347,VALID,1.6082,
2010-12-15, 00:01:04,VALID,998.931,VALID,0,VALID,91.7385,VALID,0,VALID,23.6622,VALID,346,VALID,1.70156,
2010-12-15, 00:02:04,VALID,998.932,VALID,0,VALID,91.7996,VALID,0,VALID,23.6817,VALID,2,VALID,1.8707,
2010-12-15, 00:03:04,VALID,998.872,VALID,0,VALID,91.8072,VALID,0,VALID,23.7012,VALID,10,VALID,1.52031,
2010-12-15, 00:04:04,VALID,998.866,VALID,0,VALID,91.8301,VALID,0,VALID,23.7616,VALID,10,VALID,0.271875,
2010-12-15, 00:05:04,VALID,998.812,VALID,0,VALID,91.7691,VALID,0,VALID,23.7793,VALID,10,VALID,0.449609,
2010-12-15, 00:06:04,VALID,998.776,VALID,0,VALID,91.7233,VALID,0,VALID,23.7793,VALID,19,VALID,0.6375,
2010-12-15, 00:07:04,VALID,998.786,VALID,0,VALID,91.6012,VALID,0,VALID,23.8183,VALID,41,VALID,0.627734,
2010-12-15, 00:08:04,VALID,998.753,VALID,0,VALID,91.441,VALID,0,VALID,23.8378,VALID,68,VALID,0.871875,
2010-12-15, 00:09:04,VALID,998.732,VALID,0,VALID,91.2121,VALID,0,VALID,23.8982,VALID,83,VALID,0.673828,
2010-12-15, 00:10:04,VALID,998.697,VALID,0,VALID,90.9069,VALID,0,VALID,23.9159,VALID,83,VALID,0.755469,
2010-12-15, 00:11:04,VALID,998.678,VALID,0,VALID,90.5712,VALID,0,VALID,23.9354,VALID,96,VALID,0.748438,
2010-12-15, 00:12:04,VALID,998.628,VALID,0,VALID,90.2355,VALID,0,VALID,23.9549,VALID,99,VALID,0.825391,
2010-12-15, 00:13:04,VALID,998.614,VALID,0,VALID,89.9456,VALID,0,VALID,23.9549,VALID,116,VALID,0.936328,
2010-12-15, 00:14:04,VALID,998.609,VALID,0,VALID,89.8235,VALID,0,VALID,23.9939,VALID,116,VALID,0.739062,
2010-12-15, 00:15:04,VALID,998.606,VALID,0,VALID,89.648,VALID,0,VALID,23.9744,VALID,116,VALID,0.427344,
2010-12-15, 00:16:04,VALID,998.588,VALID,0,VALID,89.587,VALID,0,VALID,23.9549,VALID,116,VALID,0.0539063,
2010-12-15, 00:17:04,VALID,998.594,VALID,0,VALID,89.5794,VALID,0,VALID,23.9549,VALID,116,VALID,0.0808594,
2010-12-15, 00:18:04,VALID,998.592,VALID,0,VALID,89.6633,VALID,0,VALID,23.9354,VALID,116,VALID,0.227344,
2010-12-15, 00:19:04,VALID,998.598,VALID,0,VALID,89.8083,VALID,0,VALID,23.9159,VALID,116,VALID,0.103125,
2010-12-15, 00:20:04,VALID,998.597,VALID,0,VALID,89.8769,VALID,0,VALID,23.9372,VALID,116,VALID,0.0765625,
2010-12-15, 00:21:04,VALID,998.563,VALID,0,VALID,89.9761,VALID,0,VALID,23.8963,VALID,116,VALID,0.146875,
2010-12-15, 00:22:04,VALID,998.517,VALID,0,VALID,89.9609,VALID,0,VALID,23.8768,VALID,116,VALID,0.227734,
2010-12-15, 00:23:04,VALID,998.498,VALID,0,VALID,90.0524,VALID,0,VALID,23.8591,VALID,100,VALID,0.708203,
2010-12-15, 00:24:04,VALID,998.454,VALID,0,VALID,90.1592,VALID,0,VALID,23.8378,VALID,97,VALID,0.657812,
2010-12-15, 00:25:04,VALID,998.393,VALID,0,VALID,90.2431,VALID,0,VALID,23.797,VALID,97,VALID,0.388672,
2010-12-15, 00:26:04,VALID,998.347,VALID,0,VALID,90.3271,VALID,0,VALID,23.8165,VALID,98,VALID,0.54375,
2010-12-15, 00:27:04,VALID,998.332,VALID,0,VALID,90.3347,VALID,0.112286,VALID,23.797,VALID,99,VALID,0.528125,
2010-12-15, 00:28:04,VALID,998.299,VALID,0,VALID,90.4263,VALID,0,VALID,23.7775,VALID,99,VALID,0.526953,
2010-12-15, 00:29:04,VALID,998.268,VALID,0,VALID,90.5026,VALID,0,VALID,23.7775,VALID,99,VALID,0.433594,
2010-12-15, 00:30:04,VALID,998.237,VALID,0,VALID,90.6399,VALID,0.112286,VALID,23.7775,VALID,99,VALID,0.460938,
2010-12-15, 00:31:04,VALID,998.251,VALID,0,VALID,90.7314,VALID,0.112286,VALID,23.7775,VALID,99,VALID,0.219922,
2010-12-15, 00:32:04,VALID,998.211,VALID,0,VALID,90.7772,VALID,0.112286,VALID,23.7775,VALID,99,VALID,0,
2010-12-15, 00:33:04,VALID,998.219,VALID,0,VALID,90.8001,VALID,0,VALID,23.7579,VALID,99,VALID,0.217187,
2010-12-15, 00:34:04,VALID,998.206,VALID,0,VALID,90.8459,VALID,0.112286,VALID,23.7579,VALID,99,VALID,0.301172,
2010-12-15, 00:35:04,VALID,998.215,VALID,0,VALID,90.9146,VALID,0,VALID,23.7579,VALID,99,VALID,0.476563,
2010-12-15, 00:36:04,VALID,998.215,VALID,0,VALID,90.9374,VALID,0,VALID,23.7384,VALID,47,VALID,0.580859,
2010-12-15, 00:37:04,VALID,998.185,VALID,0,VALID,90.9069,VALID,0,VALID,23.6994,VALID,47,VALID,0.469141,
2010-12-15, 00:38:04,VALID,998.167,VALID,0,VALID,90.884,VALID,0,VALID,23.6994,VALID,47,VALID,0.442187,
2010-12-15, 00:39:04,VALID,998.139,VALID,0,VALID,90.9756,VALID,0,VALID,23.6799,VALID,47,VALID,0.300781,
2010-12-15, 00:40:04,VALID,998.125,VALID,0,VALID,90.9832,VALID,0,VALID,23.6817,VALID,47,VALID,0.197656,
2010-12-15, 00:41:04,VALID,998.092,VALID,0,VALID,91.0214,VALID,0,VALID,23.6427,VALID,47,VALID,0.255078,
2010-12-15, 00:42:04,VALID,998.08,VALID,0,VALID,91.1053,VALID,0,VALID,23.6427,VALID,47,VALID,0.0972656,
2010-12-15, 00:43:04,VALID,998.082,VALID,0,VALID,91.1587,VALID,0,VALID,23.6427,VALID,47,VALID,0.195313,
2010-12-15, 00:44:04,VALID,998.071,VALID,0,VALID,91.2655,VALID,0,VALID,23.6427,VALID,47,VALID,0,
2010-12-15, 00:45:04,VALID,998.067,VALID,0,VALID,91.3494,VALID,0,VALID,23.6427,VALID,47,VALID,0.160156,
2010-12-15, 00:46:04,VALID,998.021,VALID,0,VALID,91.38,VALID,0,VALID,23.6427,VALID,47,VALID,0.292969,
2010-12-15, 00:47:04,VALID,998.037,VALID,0,VALID,91.4486,VALID,0,VALID,23.6622,VALID,47,VALID,0.214062,
2010-12-15, 00:48:04,VALID,997.997,VALID,0,VALID,91.4944,VALID,0,VALID,23.6427,VALID,47,VALID,0,
2010-12-15, 00:49:04,VALID,997.981,VALID,0,VALID,91.4868,VALID,0,VALID,23.6445,VALID,47,VALID,0,
2010-12-15, 00:50:04,VALID,997.975,VALID,0,VALID,91.4715,VALID,0,VALID,23.6036,VALID,47,VALID,0,
2010-12-15, 00:51:04,VALID,997.946,VALID,0,VALID,91.4791,VALID,0,VALID,23.5841,VALID,47,VALID,0,
2010-12-15, 00:52:04,VALID,997.939,VALID,0,VALID,91.4868,VALID,0,VALID,23.6036,VALID,47,VALID,0,
2010-12-15, 00:53:04,VALID,997.927,VALID,0,VALID,91.5402,VALID,0,VALID,23.6036,VALID,47,VALID,0.298047,
2010-12-15, 00:54:04,VALID,997.911,VALID,0,VALID,91.5783,VALID,0,VALID,23.6036,VALID,47,VALID,0.400781,
2010-12-15, 00:55:04,VALID,997.865,VALID,0,VALID,91.6165,VALID,0,VALID,23.6036,VALID,47,VALID,0.564062,
2010-12-15, 00:56:04,VALID,997.877,VALID,0,VALID,91.6165,VALID,0,VALID,23.6054,VALID,47,VALID,0.478516,
2010-12-15, 00:57:04,VALID,997.827,VALID,0,VALID,91.6623,VALID,0,VALID,23.5646,VALID,47,VALID,0.391016,
2010-12-15, 00:58:04,VALID,997.813,VALID,0,VALID,91.6851,VALID,0,VALID,23.5646,VALID,47,VALID,0.263672,
2010-12-15, 00:59:04,VALID,997.777,VALID,0,VALID,91.7233,VALID,0,VALID,23.5646,VALID,47,VALID,0.362109,
2010-12-15, 01:00:04,VALID,997.739,VALID,0,VALID,91.7691,VALID,0,VALID,23.5646,VALID,47,VALID,0.351563,
2010-12-15, 01:01:04,VALID,997.714,VALID,0,VALID,91.7996,VALID,0,VALID,23.5646,VALID,47,VALID,0.426953,
2010-12-15, 01:02:04,VALID,997.701,VALID,0,VALID,91.8377,VALID,0,VALID,23.5646,VALID,47,VALID,0.372656,
2010-12-15, 01:03:04,VALID,997.688,VALID,0,VALID,91.8606,VALID,0,VALID,23.5451,VALID,47,VALID,0.416406,
2010-12-15, 01:04:04,VALID,997.655,VALID,0,VALID,91.8988,VALID,0,VALID,23.5451,VALID,47,VALID,0.620313,
2010-12-15, 01:05:04,VALID,997.601,VALID,0,VALID,91.9064,VALID,0,VALID,23.5451,VALID,47,VALID,0.535156,
2010-12-15, 01:06:04,VALID,997.566,VALID,0,VALID,91.9217,VALID,0,VALID,23.5256,VALID,47,VALID,0.380469,
2010-12-15, 01:07:04,VALID,997.548,VALID,0,VALID,91.8835,VALID,0,VALID,23.4866,VALID,47,VALID,0.353906,
2010-12-15, 01:08:04,VALID,997.534,VALID,0,VALID,91.9293,VALID,0,VALID,23.4671,VALID,47,VALID,0.250391,
2010-12-15, 01:09:04,VALID,997.483,VALID,0,VALID,91.8988,VALID,0,VALID,23.4475,VALID,47,VALID,0.24375,
2010-12-15, 01:10:04,VALID,997.49,VALID,0,VALID,91.8454,VALID,0,VALID,23.428,VALID,47,VALID,0.203125,
2010-12-15, 01:11:04,VALID,997.463,VALID,0,VALID,91.8683,VALID,0,VALID,23.3677,VALID,47,VALID,0.119922,
2010-12-15, 01:12:04,VALID,997.481,VALID,0,VALID,91.9217,VALID,0,VALID,23.3695,VALID,47,VALID,0,
2010-12-15, 01:13:04,VALID,997.458,VALID,0,VALID,91.9903,VALID,0,VALID,23.389,VALID,47,VALID,0,
2010-12-15, 01:14:04,VALID,997.446,VALID,0,VALID,92.0514,VALID,0,VALID,23.389,VALID,47,VALID,0.180859,
2010-12-15, 01:15:04,VALID,997.408,VALID,0,VALID,92.1277,VALID,0,VALID,23.428,VALID,47,VALID,0.323828,
2010-12-15, 01:16:04,VALID,997.427,VALID,0,VALID,92.1963,VALID,0,VALID,23.4475,VALID,47,VALID,0.506641,
2010-12-15, 01:17:04,VALID,997.418,VALID,0,VALID,92.2268,VALID,0,VALID,23.4475,VALID,96,VALID,0.884766,
2010-12-15, 01:18:04,VALID,997.391,VALID,0,VALID,92.2803,VALID,0,VALID,23.4475,VALID,96,VALID,0.840625,
2010-12-15, 01:19:04,VALID,997.357,VALID,0,VALID,92.2726,VALID,0,VALID,23.428,VALID,96,VALID,0.766406,
2010-12-15, 01:20:04,VALID,997.337,VALID,0,VALID,92.2421,VALID,0,VALID,23.35,VALID,96,VALID,0.651953,
2010-12-15, 01:21:04,VALID,997.306,VALID,0,VALID,92.1811,VALID,0,VALID,23.3305,VALID,96,VALID,0.578125,
2010-12-15, 01:22:04,VALID,997.294,VALID,0,VALID,92.1277,VALID,0,VALID,23.311,VALID,96,VALID,0.50625,
2010-12-15, 01:23:04,VALID,997.296,VALID,0,VALID,92.1353,VALID,0,VALID,23.311,VALID,96,VALID,0.401563,
2010-12-15, 01:24:04,VALID,997.283,VALID,0,VALID,92.1124,VALID,0,VALID,23.2702,VALID,96,VALID,0.43125,
2010-12-15, 01:25:04,VALID,997.289,VALID,0,VALID,92.1429,VALID,0.112286,VALID,23.3092,VALID,96,VALID,0.478906,
2010-12-15, 01:26:04,VALID,997.295,VALID,0,VALID,92.1506,VALID,0,VALID,23.3482,VALID,96,VALID,0.441406,
2010-12-15, 01:27:04,VALID,997.286,VALID,0,VALID,92.1811,VALID,0.112286,VALID,23.3482,VALID,96,VALID,0.431641,
2010-12-15, 01:28:04,VALID,997.293,VALID,0,VALID,92.2116,VALID,0,VALID,23.3482,VALID,96,VALID,0.807031,
2010-12-15, 01:29:04,VALID,997.295,VALID,0,VALID,92.204,VALID,0,VALID,23.3287,VALID,96,VALID,0.497656,
2010-12-15, 01:30:04,VALID,997.27,VALID,0,VALID,92.1811,VALID,0.112286,VALID,23.2897,VALID,96,VALID,0.514063,
2010-12-15, 01:31:04,VALID,997.286,VALID,0,VALID,92.1582,VALID,0,VALID,23.2702,VALID,96,VALID,0.345313,
2010-12-15, 01:32:04,VALID,997.263,VALID,0,VALID,92.1353,VALID,0.112286,VALID,23.2312,VALID,96,VALID,0.380469,
2010-12-15, 01:33:04,VALID,997.281,VALID,0,VALID,92.1124,VALID,0.112286,VALID,23.2524,VALID,96,VALID,0.326562,
2010-12-15, 01:34:04,VALID,997.27,VALID,0,VALID,92.1353,VALID,0,VALID,23.1921,VALID,96,VALID,0.367578,
2010-12-15, 01:35:04,VALID,997.27,VALID,0,VALID,92.0895,VALID,0.112286,VALID,23.1921,VALID,96,VALID,0.324609,
2010-12-15, 01:36:04,VALID,997.286,VALID,0,VALID,92.1506,VALID,0,VALID,23.1921,VALID,96,VALID,0.495313,
2010-12-15, 01:37:04,VALID,997.263,VALID,0,VALID,92.1506,VALID,0.112286,VALID,23.2117,VALID,96,VALID,0.349219,
2010-12-15, 01:38:04,VALID,997.258,VALID,0,VALID,92.1582,VALID,0.112286,VALID,23.2329,VALID,96,VALID,0.394922,
2010-12-15, 01:39:04,VALID,997.246,VALID,0,VALID,92.1582,VALID,0.112286,VALID,23.1921,VALID,96,VALID,0.314844,
2010-12-15, 01:40:04,VALID,997.237,VALID,0,VALID,92.1658,VALID,0,VALID,23.1921,VALID,96,VALID,0.396484,
2010-12-15, 01:41:04,VALID,997.237,VALID,0,VALID,92.1429,VALID,0,VALID,23.1921,VALID,96,VALID,0.569531,
2010-12-15, 01:42:04,VALID,997.205,VALID,0,VALID,92.1429,VALID,0.112286,VALID,23.1921,VALID,96,VALID,0.521875,
2010-12-15, 01:43:04,VALID,997.182,VALID,0,VALID,92.1506,VALID,0.112286,VALID,23.2117,VALID,96,VALID,0.614453,
2010-12-15, 01:44:04,VALID,997.194,VALID,0,VALID,92.1353,VALID,0.112286,VALID,23.2312,VALID,96,VALID,0.650781,
2010-12-15, 01:45:04,VALID,997.171,VALID,0,VALID,92.1506,VALID,0.112286,VALID,23.2507,VALID,95,VALID,0.905469,
2010-12-15, 01:46:04,VALID,997.178,VALID,0,VALID,92.1124,VALID,0.112286,VALID,23.2507,VALID,91,VALID,0.739844,
2010-12-15, 01:47:04,VALID,997.204,VALID,0,VALID,92.0666,VALID,0.112286,VALID,23.2507,VALID,90,VALID,0.557813,
2010-12-15, 01:48:04,VALID,997.21,VALID,0,VALID,91.9903,VALID,0.112286,VALID,23.2312,VALID,90,VALID,0.985156,
2010-12-15, 01:49:04,VALID,997.215,VALID,0,VALID,91.9369,VALID,0.112286,VALID,23.2507,VALID,93,VALID,1.00625,
2010-12-15, 01:50:04,VALID,997.204,VALID,0,VALID,91.8759,VALID,0.224572,VALID,23.2702,VALID,86,VALID,0.59375,
2010-12-15, 01:51:04,VALID,997.227,VALID,0,VALID,91.7996,VALID,0.112286,VALID,23.2507,VALID,86,VALID,0.653516,
2010-12-15, 01:52:04,VALID,997.203,VALID,0,VALID,91.7309,VALID,0.112286,VALID,23.2507,VALID,87,VALID,0.658594,
2010-12-15, 01:53:04,VALID,997.192,VALID,0,VALID,91.6928,VALID,0.112286,VALID,23.2702,VALID,110,VALID,0.689453,
2010-12-15, 01:54:04,VALID,997.169,VALID,0,VALID,91.6088,VALID,0.112286,VALID,23.2702,VALID,102,VALID,1.04922,
2010-12-15, 01:55:04,VALID,997.152,VALID,0,VALID,91.5631,VALID,0,VALID,23.2719,VALID,99,VALID,0.947266,
2010-12-15, 01:56:04,VALID,997.14,VALID,0,VALID,91.4791,VALID,0,VALID,23.2915,VALID,100,VALID,0.891406,
2010-12-15, 01:57:04,VALID,997.116,VALID,0,VALID,91.4334,VALID,0,VALID,23.2915,VALID,105,VALID,0.837891,
2010-12-15, 01:58:04,VALID,997.1,VALID,0,VALID,91.4181,VALID,0,VALID,23.311,VALID,99,VALID,1.07266,
2010-12-15, 01:59:04,VALID,997.091,VALID,0,VALID,91.4181,VALID,0,VALID,23.3305,VALID,99,VALID,1.23789,
2010-12-15, 02:00:04,VALID,997.105,VALID,0,VALID,91.3723,VALID,0,VALID,23.3305,VALID,97,VALID,0.629687,
2010-12-15, 02:01:04,VALID,997.145,VALID,0,VALID,91.3189,VALID,0,VALID,23.3287,VALID,91,VALID,0.625,
2010-12-15, 02:02:04,VALID,997.122,VALID,0,VALID,91.2579,VALID,0,VALID,23.3287,VALID,91,VALID,0.180469,
2010-12-15, 02:03:04,VALID,997.115,VALID,0,VALID,91.174,VALID,0,VALID,23.311,VALID,91,VALID,0.413672,
2010-12-15, 02:04:04,VALID,997.16,VALID,0,VALID,91.1511,VALID,0,VALID,23.311,VALID,91,VALID,0.244531,
2010-12-15, 02:05:04,VALID,997.162,VALID,0,VALID,91.0824,VALID,0,VALID,23.2719,VALID,91,VALID,0.308984,
2010-12-15, 02:06:04,VALID,997.157,VALID,0,VALID,91.09,VALID,0,VALID,23.2524,VALID,91,VALID,0.374219,
2010-12-15, 02:07:04,VALID,997.144,VALID,0,VALID,91.1587,VALID,0,VALID,23.2507,VALID,91,VALID,0.503906,
2010-12-15, 02:08:04,VALID,997.133,VALID,0,VALID,91.2197,VALID,0,VALID,23.2719,VALID,91,VALID,0.292969,
2010-12-15, 02:09:04,VALID,997.145,VALID,0,VALID,91.2121,VALID,0,VALID,23.2524,VALID,91,VALID,0.178516,
2010-12-15, 02:10:04,VALID,997.109,VALID,0,VALID,91.1968,VALID,0,VALID,23.2329,VALID,91,VALID,0.212109,
2010-12-15, 02:11:04,VALID,997.117,VALID,0,VALID,91.2121,VALID,0,VALID,23.2134,VALID,91,VALID,0,
2010-12-15, 02:12:04,VALID,997.122,VALID,0,VALID,91.235,VALID,0,VALID,23.2329,VALID,91,VALID,0,
2010-12-15, 02:13:04,VALID,997.161,VALID,0,VALID,91.2655,VALID,0,VALID,23.2134,VALID,91,VALID,0,
2010-12-15, 02:14:04,VALID,997.167,VALID,0,VALID,91.2579,VALID,0,VALID,23.1939,VALID,91,VALID,0,
2010-12-15, 02:15:04,VALID,997.179,VALID,0,VALID,91.2274,VALID,0,VALID,23.1744,VALID,91,VALID,0,
2010-12-15, 02:16:04,VALID,997.162,VALID,0,VALID,91.174,VALID,0,VALID,23.1354,VALID,91,VALID,0,
2010-12-15, 02:17:04,VALID,997.145,VALID,0,VALID,91.174,VALID,0,VALID,23.0964,VALID,91,VALID,0,
2010-12-15, 02:18:04,VALID,997.134,VALID,0,VALID,91.2579,VALID,0,VALID,23.1159,VALID,91,VALID,0,
2010-12-15, 02:19:04,VALID,997.131,VALID,0,VALID,91.38,VALID,0,VALID,23.1354,VALID,91,VALID,0,
2010-12-15, 02:20:04,VALID,997.077,VALID,0,VALID,91.4944,VALID,0,VALID,23.1549,VALID,101,VALID,0.690234,
2010-12-15, 02:21:04,VALID,997.09,VALID,0,VALID,91.5936,VALID,0,VALID,23.1531,VALID,119,VALID,0.774609,
2010-12-15, 02:22:04,VALID,997.088,VALID,0,VALID,91.647,VALID,0,VALID,23.1939,VALID,119,VALID,0.477344,
2010-12-15, 02:23:04,VALID,997.074,VALID,0,VALID,91.647,VALID,0,VALID,23.2134,VALID,119,VALID,0.442578,
2010-12-15, 02:24:04,VALID,997.086,VALID,0,VALID,91.6241,VALID,0,VALID,23.2329,VALID,119,VALID,0.547266,
2010-12-15, 02:25:04,VALID,997.073,VALID,0,VALID,91.5554,VALID,0,VALID,23.2524,VALID,119,VALID,0.350781,
2010-12-15, 02:26:04,VALID,997.089,VALID,0,VALID,91.502,VALID,0,VALID,23.2719,VALID,119,VALID,0.49375,
2010-12-15, 02:27:04,VALID,997.062,VALID,0,VALID,91.4334,VALID,0,VALID,23.2915,VALID,119,VALID,0.148047,
2010-12-15, 02:28:04,VALID,997.102,VALID,0,VALID,91.3876,VALID,0,VALID,23.3305,VALID,119,VALID,0.04375,
2010-12-15, 02:29:04,VALID,997.132,VALID,0,VALID,91.3037,VALID,0,VALID,23.311,VALID,119,VALID,0.132031,
2010-12-15, 02:30:04,VALID,997.112,VALID,0,VALID,91.235,VALID,0,VALID,23.3305,VALID,119,VALID,0,
2010-12-15, 02:31:04,VALID,997.125,VALID,0,VALID,91.1053,VALID,0,VALID,23.3305,VALID,119,VALID,0,
2010-12-15, 02:32:04,VALID,997.139,VALID,0,VALID,91.0443,VALID,0,VALID,23.3305,VALID,119,VALID,0,
2010-12-15, 02:33:04,VALID,997.113,VALID,0,VALID,90.9985,VALID,0,VALID,23.311,VALID,119,VALID,0,
2010-12-15, 02:34:04,VALID,997.125,VALID,0,VALID,90.968,VALID,0,VALID,23.3305,VALID,119,VALID,0,
2010-12-15, 02:35:04,VALID,997.105,VALID,0,VALID,90.9298,VALID,0,VALID,23.311,VALID,119,VALID,0.261719,
2010-12-15, 02:36:04,VALID,997.113,VALID,0,VALID,90.9146,VALID,0,VALID,23.311,VALID,119,VALID,0.246484,
2010-12-15, 02:37:04,VALID,997.105,VALID,0,VALID,90.8611,VALID,0,VALID,23.2915,VALID,119,VALID,0.376563,
2010-12-15, 02:38:04,VALID,997.13,VALID,0,VALID,90.8535,VALID,0,VALID,23.311,VALID,119,VALID,0.564844,
2010-12-15, 02:39:04,VALID,997.1,VALID,0,VALID,90.8383,VALID,0,VALID,23.311,VALID,119,VALID,0.552734,
2010-12-15, 02:40:04,VALID,997.119,VALID,0,VALID,90.7925,VALID,0,VALID,23.311,VALID,119,VALID,0.688672,
2010-12-15, 02:41:04,VALID,997.14,VALID,0,VALID,90.7238,VALID,0,VALID,23.3305,VALID,119,VALID,0.697656,
2010-12-15, 02:42:04,VALID,997.159,VALID,0,VALID,90.7162,VALID,0,VALID,23.3695,VALID,120,VALID,0.79375,
2010-12-15, 02:43:04,VALID,997.158,VALID,0,VALID,90.6475,VALID,0,VALID,23.3695,VALID,127,VALID,0.700391,
2010-12-15, 02:44:04,VALID,997.154,VALID,0,VALID,90.5407,VALID,0,VALID,23.3695,VALID,131,VALID,0.66875,
2010-12-15, 02:45:04,VALID,997.156,VALID,0,VALID,90.4186,VALID,0,VALID,23.35,VALID,131,VALID,0.855078,
2010-12-15, 02:46:04,VALID,997.175,VALID,0,VALID,90.4034,VALID,0,VALID,23.3695,VALID,131,VALID,0.880859,
2010-12-15, 02:47:04,VALID,997.152,VALID,0,VALID,90.4263,VALID,0,VALID,23.3695,VALID,131,VALID,0.800781,
2010-12-15, 02:48:04,VALID,997.123,VALID,0,VALID,90.4034,VALID,0,VALID,23.4085,VALID,131,VALID,0.664453,
2010-12-15, 02:49:04,VALID,997.112,VALID,0,VALID,90.411,VALID,0,VALID,23.428,VALID,131,VALID,0.608594,
2010-12-15, 02:50:04,VALID,997.089,VALID,0,VALID,90.4034,VALID,0,VALID,23.4067,VALID,131,VALID,0.397656,
2010-12-15, 02:51:04,VALID,997.087,VALID,0,VALID,90.3652,VALID,0,VALID,23.4475,VALID,132,VALID,0.391797,
2010-12-15, 02:52:04,VALID,997.081,VALID,0,VALID,90.2584,VALID,0,VALID,23.4671,VALID,170,VALID,0.944141,
2010-12-15, 02:53:04,VALID,997.048,VALID,0,VALID,90.1134,VALID,0,VALID,23.4671,VALID,170,VALID,0.632031,
2010-12-15, 02:54:04,VALID,997.067,VALID,0,VALID,89.9303,VALID,0,VALID,23.4671,VALID,163,VALID,0.825781,
2010-12-15, 02:55:04,VALID,997.038,VALID,0,VALID,89.8235,VALID,0,VALID,23.5061,VALID,158,VALID,0.846484,
2010-12-15, 02:56:04,VALID,997.043,VALID,0,VALID,89.7243,VALID,0,VALID,23.5256,VALID,158,VALID,0.801172,
2010-12-15, 02:57:04,VALID,997.066,VALID,0,VALID,89.5183,VALID,0,VALID,23.5451,VALID,158,VALID,0.912109,
2010-12-15, 02:58:04,VALID,997.057,VALID,0,VALID,89.4268,VALID,0,VALID,23.5451,VALID,174,VALID,1.26992,
2010-12-15, 02:59:04,VALID,997.082,VALID,0,VALID,89.2742,VALID,0,VALID,23.5451,VALID,166,VALID,0.787891,
2010-12-15, 03:00:04,VALID,997.066,VALID,0,VALID,89.2208,VALID,0,VALID,23.5646,VALID,171,VALID,0.460938,
2010-12-15, 03:01:04,VALID,997.044,VALID,0,VALID,89.2055,VALID,0,VALID,23.5859,VALID,169,VALID,0.804297,
2010-12-15, 03:02:04,VALID,997.034,VALID,0,VALID,89.114,VALID,0,VALID,23.5841,VALID,160,VALID,1.17891,
2010-12-15, 03:03:04,VALID,997.025,VALID,0,VALID,88.8317,VALID,0,VALID,23.6427,VALID,153,VALID,1.25859,
2010-12-15, 03:04:04,VALID,997.023,VALID,0,VALID,88.5189,VALID,0,VALID,23.6622,VALID,152,VALID,1.13164,
2010-12-15, 03:05:04,VALID,997.018,VALID,0,VALID,88.2518,VALID,0,VALID,23.7012,VALID,157,VALID,0.848437,
2010-12-15, 03:06:04,VALID,996.998,VALID,0,VALID,88.1526,VALID,0,VALID,23.6817,VALID,166,VALID,1.17539,
2010-12-15, 03:07:04,VALID,996.998,VALID,0,VALID,88.1526,VALID,0,VALID,23.6622,VALID,176,VALID,1.25469,
2010-12-15, 03:08:04,VALID,996.975,VALID,0,VALID,88.1984,VALID,0,VALID,23.7012,VALID,176,VALID,1.28086,
2010-12-15, 03:09:04,VALID,996.965,VALID,0,VALID,88.2213,VALID,0,VALID,23.6817,VALID,185,VALID,1.22305,
2010-12-15, 03:10:04,VALID,996.994,VALID,0,VALID,88.1603,VALID,0,VALID,23.6817,VALID,183,VALID,1.52344,
2010-12-15, 03:11:04,VALID,996.971,VALID,0,VALID,88.1755,VALID,0,VALID,23.7225,VALID,179,VALID,1.23398,
2010-12-15, 03:12:04,VALID,996.959,VALID,0,VALID,88.1374,VALID,0,VALID,23.6817,VALID,180,VALID,1.47187,
2010-12-15, 03:13:04,VALID,996.965,VALID,0,VALID,88.1374,VALID,0,VALID,23.703,VALID,167,VALID,1.18281,
2010-12-15, 03:14:04,VALID,996.977,VALID,0,VALID,88.1526,VALID,0,VALID,23.6817,VALID,159,VALID,1.14492,
2010-12-15, 03:15:04,VALID,997.026,VALID,0,VALID,88.1526,VALID,0,VALID,23.6817,VALID,155,VALID,1.14688,
2010-12-15, 03:16:04,VALID,997.04,VALID,0,VALID,88.1832,VALID,0,VALID,23.6622,VALID,144,VALID,1.08047,
2010-12-15, 03:17:04,VALID,997.031,VALID,0,VALID,88.2137,VALID,0,VALID,23.6427,VALID,133,VALID,1.1625,
2010-12-15, 03:18:04,VALID,997.043,VALID,0,VALID,88.2747,VALID,0,VALID,23.6232,VALID,133,VALID,0.878125,
2010-12-15, 03:19:04,VALID,997.03,VALID,0,VALID,88.3129,VALID,0,VALID,23.6232,VALID,133,VALID,0.762109,
2010-12-15, 03:20:04,VALID,997.049,VALID,0,VALID,88.3892,VALID,0,VALID,23.6036,VALID,133,VALID,0.611328,
2010-12-15, 03:21:04,VALID,997.046,VALID,0,VALID,88.5341,VALID,0,VALID,23.5859,VALID,133,VALID,0.603516,
2010-12-15, 03:22:04,VALID,997.045,VALID,0,VALID,88.6791,VALID,0,VALID,23.5664,VALID,133,VALID,0.671484,
2010-12-15, 03:23:04,VALID,997.006,VALID,0,VALID,88.8011,VALID,0,VALID,23.5256,VALID,133,VALID,0.807031,
2010-12-15, 03:24:04,VALID,996.984,VALID,0,VALID,88.9461,VALID,0,VALID,23.5256,VALID,133,VALID,0.524219,
2010-12-15, 03:25:04,VALID,996.987,VALID,0,VALID,89.0834,VALID,0,VALID,23.5061,VALID,133,VALID,0.519531,
2010-12-15, 03:26:04,VALID,996.998,VALID,0,VALID,89.1826,VALID,0,VALID,23.5061,VALID,133,VALID,0.378125,
2010-12-15, 03:27:04,VALID,997.048,VALID,0,VALID,89.2513,VALID,0,VALID,23.4866,VALID,133,VALID,0.253906,
2010-12-15, 03:28:04,VALID,997.012,VALID,0,VALID,89.3352,VALID,0,VALID,23.5079,VALID,133,VALID,0.382031,
2010-12-15, 03:29:04,VALID,997.025,VALID,0,VALID,89.4344,VALID,0,VALID,23.4671,VALID,133,VALID,0.468359,
2010-12-15, 03:30:04,VALID,997.026,VALID,0,VALID,89.5794,VALID,0,VALID,23.4866,VALID,133,VALID,0.421094,
2010-12-15, 03:31:04,VALID,997.047,VALID,0,VALID,89.6328,VALID,0,VALID,23.4866,VALID,105,VALID,0.682031,
2010-12-15, 03:32:04,VALID,997.045,VALID,0,VALID,89.6404,VALID,0,VALID,23.4458,VALID,105,VALID,0.430859,
2010-12-15, 03:33:04,VALID,997.055,VALID,0,VALID,89.6786,VALID,0,VALID,23.4866,VALID,105,VALID,0.419141,
2010-12-15, 03:34:04,VALID,997.077,VALID,0,VALID,89.7243,VALID,0,VALID,23.4671,VALID,105,VALID,0.610547,
2010-12-15, 03:35:04,VALID,997.059,VALID,0,VALID,89.7701,VALID,0,VALID,23.4671,VALID,105,VALID,0.498437,
2010-12-15, 03:36:04,VALID,997.067,VALID,0,VALID,89.854,VALID,0,VALID,23.4671,VALID,105,VALID,0.565234,
2010-12-15, 03:37:04,VALID,997.058,VALID,0,VALID,89.8769,VALID,0,VALID,23.4671,VALID,105,VALID,0.560156,
2010-12-15, 03:38:04,VALID,997.084,VALID,0,VALID,89.9456,VALID,0,VALID,23.4475,VALID,105,VALID,0.541797,
2010-12-15, 03:39:04,VALID,997.099,VALID,0,VALID,89.9227,VALID,0,VALID,23.4475,VALID,105,VALID,0.498437,
2010-12-15, 03:40:04,VALID,997.092,VALID,0,VALID,89.9227,VALID,0,VALID,23.428,VALID,105,VALID,0.483984,
2010-12-15, 03:41:04,VALID,997.115,VALID,0,VALID,89.8693,VALID,0,VALID,23.4298,VALID,105,VALID,0.322656,
2010-12-15, 03:42:04,VALID,997.09,VALID,0,VALID,89.8693,VALID,0,VALID,23.4085,VALID,105,VALID,0.229687,
2010-12-15, 03:43:04,VALID,997.142,VALID,0,VALID,89.9151,VALID,0,VALID,23.3695,VALID,105,VALID,0.247266,
2010-12-15, 03:44:04,VALID,997.119,VALID,0,VALID,89.9914,VALID,0,VALID,23.35,VALID,105,VALID,0.311328,
2010-12-15, 03:45:04,VALID,997.145,VALID,0,VALID,90.0829,VALID,0,VALID,23.35,VALID,105,VALID,0.34375,